Flag for Austria Weather past 2 weeks in Judenburg, Styria, Austria

Now
57 °F

Scattered clouds.


Feels Like: 57 °F
Forecast: 47 / 60 °F
Wind: 2 mph from North

Location: Zeltweg

Current Time: Sep 30, 2014 at 12:18:40 PM

Latest Report: Sep 30, 2014 at 11:50 AM


Visibility: 25 mi

Pressure: 30.33 "Hg

Humidity: 82%

Dew point: 52 °F

Location of JudenburgLocation

Historic Weather in Judenburg — Graph

°F

Judenburg temperature yesterday

Maximum temperature yesterday: 72 °F (at 3:20 PM)
Minimum temperature yesterday: 41 °F (at 5:50 AM)
Average temperature yesterday: 57 °F

Past Weeks' High & Low Weather Summary

 TemperatureHumidityPressure
High75 °F (Sep 19, 3:20 PM)100% (Sep 15, 9:50 PM)30.45 "Hg (Sep 15, 9:50 PM)
Low34 °F (Sep 24, 5:50 AM)41% (Sep 22, 4:20 PM)29.89 "Hg (Sep 22, 4:50 AM)
Average56 °F76%30.13 "Hg
* Reported Sep 15 10:20 AM — Sep 30 10:50 AM, Judenburg, Weather by CustomWeather, © 2014

Note: Actual official high and low records may vary slightly from our data, if they occured in-between our weather recording intervals... More about our weather records

Advertising

Judenburg weather history for previous 24 hours

 ConditionsComfort  
Time TempWeatherWind HumidityBarometerVisibility
10:50 AM
Sep 30
48 °FFog.2 mph100%30.36 "Hg1 mi
10:20 AM48 °FFog.2 mph100%30.36 "Hg1 mi
9:50 AM46 °FFog.1 mph100%30.36 "Hg0 mi
9:20 AM46 °FFog.1 mph100%30.36 "Hg0 mi
8:50 AM46 °FFog.1 mph100%30.36 "Hg0 mi
8:20 AM45 °FFog.2 mph100%30.36 "Hg0 mi
7:50 AM45 °FFog.2 mph100%30.36 "Hg0 mi
7:20 AM45 °FFog.No wind100%30.36 "Hg1 mi
6:50 AM45 °FFog.1 mph100%30.33 "Hg1 mi
5:50 AM43 °FFog.1 mph100%30.33 "Hg1 mi
4:50 AM43 °FPassing clouds.2 mph100%30.33 "Hg1 mi
10:50 PM
Sep 29
48 °FPassing clouds.1 mph100%30.33 "Hg12 mi
9:50 PM52 °FPassing clouds.1 mph88%30.33 "Hg19 mi
8:50 PM54 °FPassing clouds.1 mph88%30.33 "Hg19 mi
7:50 PM54 °FPassing clouds.2 mph82%30.30 "Hg25 mi
6:50 PM61 °FScattered clouds.2 mph72%30.30 "Hg25 mi
6:20 PM63 °FScattered clouds.3 mph73%30.27 "Hg25 mi
5:50 PM66 °FScattered clouds.5 mph73%30.27 "Hg25 mi
5:20 PM70 °FScattered clouds.2 mph53%30.27 "Hg25 mi
4:50 PM72 °FScattered clouds.2 mph47%30.27 "Hg25 mi
4:20 PM72 °FScattered clouds.1 mph44%30.27 "Hg25 mi
3:50 PM72 °FScattered clouds.2 mph47%30.30 "Hg25 mi
3:20 PM72 °FPartly sunny.3 mph50%30.30 "Hg25 mi
2:50 PM68 °FPartly sunny.3 mph60%30.30 "Hg25 mi
2:20 PM68 °FPartly sunny.3 mph56%30.33 "Hg25 mi
1:50 PM66 °FPartly sunny.1 mph60%30.33 "Hg25 mi
1:20 PM64 °FPartly sunny.2 mph64%30.33 "Hg25 mi
12:50 PM63 °FPartly sunny.2 mph68%30.36 "Hg25 mi
12:20 PM61 °FScattered clouds.3 mph72%30.36 "Hg25 mi
Weather by CustomWeather, © 2014

See weather overviewHow to use our weather pages